Tracking 29487 objects as of 11-Sep-2024
HD Live streaming from Space Station
objects crossing your sky now

OBJECT Z

Track OBJECT Z now!
10-day predictions
OBJECT Z is classified as:


NORAD ID: 57189
Int'l Code: 2023-091Z
Perigee: 525.0 km
Apogee: 542.7 km
Inclination: 97.6 °
Period: 95.2 minutes
Semi major axis: 6904 km
RCS: Unknown
Launch date: June 27, 2023
Source: (TBD)
Launch site: VOSTOCHNY COSMODROME (VOSTO)

Uplink (MHz):
Downlink (MHz): 437.825
Beacon (MHz):
Mode: 2k4/4k8*/9k6 GMSK_USP
Call sign: RS38S
Status: Active

Your satellite tracking list
Your tracking list is empty




NASA's NSSDC Master Catalog

Two Line Element Set (TLE):
1 57189U 23091Z   24255.85627980  .00023077  00000-0  13013-2 0  9997
2 57189  97.6052 308.7138 0012801 163.0764 197.0896 15.13111222 66652
Source of the keplerian elements: AFSPC